Skip Page Navigation
NASA JPL Caltech
NASA Logo - Jet Propulsion Laboratory + View the NASA Portal
+ Center for Near-Earth Object Studies
JPL Home Earth Solar System Stars & Galaxies Technology
JPL Solar System Dynamics
BODIES ORBITS EPHEMERIDES TOOLS PHYSICAL DATA DISCOVERY FAQ SITE MAP
IMPORTANT: The SSD Announcement email list is now available. Major changes are coming in the near future, including possible hostname and/or URL changes. To be notified of such changes, subscribe to this email list.

Please visit this page for more details.


JPL Small-Body Database Browser
Search: [ help ]  
136613 (1993 TA38)
Classification: Main-belt Asteroid          SPK-ID: 2136613
Ephemeris | Orbit Diagram | Orbital Elements | Mission Design | Physical Parameters | Discovery Circumstances ]

[ show orbit diagram ]
Orbital Elements at Epoch 2458600.5 (2019-Apr-27.0) TDB
Reference: JPL 16 (heliocentric ecliptic J2000)
 Element Value Uncertainty (1-sigma)   Units 
e .216575069498676 3.6128e-08  
a 2.632115681577325 2.017e-08 au
q 2.062065044911161 1.0086e-07 au
i 4.414957816290094 6.0457e-06 deg
node 126.5945099212466 5.3718e-05 deg
peri 271.3631877307239 5.6552e-05 deg
M 343.4743788916291 1.9528e-05 deg
tp 2458672.099695653020
(2019-Jul-07.59969565)
8.5207e-05 TDB
period 1559.753201774095
4.27
1.7929e-05
4.909e-08
d
yr
n .2308057451592525 2.653e-09 deg/d
Q 3.202166318243489 2.4538e-08 au
  Orbit Determination Parameters
   # obs. used (total)      430  
   data-arc span      8605 days (23.56 yr)  
   first obs. used      1993-10-09  
   last obs. used      2017-05-01  
   planetary ephem.      DE431  
   SB-pert. ephem.      SB431-N16  
   condition code      0  
   norm. resid. RMS      .58134  
   source      ORB  
   producer      Otto Matic  
   solution date      2017-May-15 16:47:25  

Additional Information
 Earth MOID = 1.07464 au 
 Jupiter MOID = 2.23277 au 
 T_jup = 3.361 
[ show covariance matrix ]

Ephemeris | Orbit Diagram | Orbital Elements | Mission Design | Physical Parameters | Discovery Circumstances ]

Physical Parameter Table
Parameter Symbol Value Units Sigma Reference Notes
absolute magnitude H 16.2   n/a MPO310106  

136613 (1993 TA38)          Discovered 1993-Oct-09 by Elst, E. W. at La Silla
Reference: 20061205/Numbers.arcLast Updated: 2006-12-13

Alternate Designations
 1993 TA38 = 2003 AW26 
Ephemeris | Orbit Diagram | Orbital Elements | Mission Design | Physical Parameters | Discovery Circumstances ]
ABOUT SSD CREDITS/AWARDS PRIVACY/COPYRIGHT GLOSSARY LINKS
FirstGov
(server date/time)  
NASA Home Page
Site Manager:   Ryan S. Park
Webmaster  Alan B. Chamberlin